NORTHEAST SUFFOLK  -  Winter Weather Advisory Winter Weather Advisory        NORTHERN NASSAU  -  Winter Weather Advisory Winter Weather Advisory        NORTHWEST SUFFOLK  -  Winter Weather Advisory Winter Weather Advisory        SOUTHEAST SUFFOLK  -  Winter Weather Advisory Winter Weather Advisory        SOUTHERN NASSAU  -  Winter Weather Advisory Winter Weather Advisory        SOUTHWEST SUFFOLK  -  Winter Weather Advisory Winter Weather Advisory      

Active alerts

Northern Nassau
  Details for Northern Nassau Winter Weather Advisory
Southern Nassau
  Details for Southern Nassau Winter Weather Advisory
Northwest Suffolk
  Details for Northwest Suffolk Winter Weather Advisory
Southwest Suffolk
  Details for Southwest Suffolk Winter Weather Advisory
Northeast Suffolk
  Details for Northeast Suffolk Winter Weather Advisory
Southeast Suffolk
  Details for Southeast Suffolk Winter Weather Advisory


WXM80 ListenWXM80 Stop

You find our weather info also at:

UK Metoffice

WeatherCloud

Weather Underground

Northeastern Weather Network

AWEKAS

Citizen Weather Observer Program (CWOP)

HAMweather, WeatherForYou, PWS Weather


Weather Underground History page Text

Daily Summary for May 19, 2017 Units:  English    Metric   Both
« Previous Day
Next Day »
Daily Weekly Monthly Yearly Custom
  High: Low: Average:
Temperature: 95.1 °F 64.7 °F 80.6 °F
Dew Point: 74.7 °F 55.2 °F 67.3 °F
Humidity: 81 % 40 % 65 %
Wind Speed: 8.4 mph 0.0 mph 3.2 mph
Wind Gust: 15.0 mph - -
Wind:- - SW
Pressure: 30.01 in 29.78 in -
Precipitation: 0.12 in    
Historical Graphs
 
 
Tabular Data for May 19, 2017
Time Temperature Dew Point Pressure Wind Wind Speed Wind Gust Humidity Rainfall Rate (Hourly)
00:02 79.0 °F 66.7 °F 29.80 in SW 4.0 mph 9.0 mph 66 % 0.00 in
00:07 79.0 °F 66.7 °F 29.80 in SSW 4.4 mph 4.4 mph 66 % 0.00 in
00:12 79.0 °F 66.7 °F 29.80 in SW 4.9 mph 11.5 mph 66 % 0.00 in
00:17 79.0 °F 66.7 °F 29.81 in WSW 5.4 mph 7.0 mph 66 % 0.00 in
00:22 79.0 °F 66.7 °F 29.81 in SSW 5.1 mph 10.4 mph 66 % 0.00 in
00:28 79.0 °F 66.7 °F 29.81 in SW 5.6 mph 8.1 mph 66 % 0.00 in
00:32 79.0 °F 66.7 °F 29.81 in SSW 5.2 mph 11.5 mph 66 % 0.00 in
00:36 79.0 °F 66.7 °F 29.81 in WSW 4.7 mph 11.5 mph 66 % 0.00 in
00:41 79.0 °F 66.7 °F 29.81 in SSW 1.2 mph 8.1 mph 66 % 0.00 in
00:46 79.1 °F 66.8 °F 29.81 in SW 2.4 mph 5.8 mph 66 % 0.00 in
00:51 79.1 °F 66.8 °F 29.81 in West 2.2 mph 6.9 mph 66 % 0.00 in
00:56 79.1 °F 66.8 °F 29.81 in West 2.9 mph 8.1 mph 66 % 0.00 in
01:01 79.1 °F 66.8 °F 29.81 in SW 1.8 mph 3.5 mph 66 % 0.00 in
01:06 79.1 °F 66.8 °F 29.81 in WSW 3.8 mph 4.6 mph 66 % 0.00 in
01:11 79.1 °F 66.8 °F 29.81 in SW 4.8 mph 5.8 mph 66 % 0.00 in
01:16 79.1 °F 66.8 °F 29.81 in SSW 5.1 mph 10.4 mph 66 % 0.00 in
01:21 79.1 °F 66.8 °F 29.81 in SW 2.4 mph 10.4 mph 66 % 0.00 in
01:26 79.1 °F 67.2 °F 29.81 in SSW 3.4 mph 6.9 mph 67 % 0.00 in
01:31 79.0 °F 67.1 °F 29.80 in WSW 3.2 mph 6.9 mph 67 % 0.00 in
01:36 79.0 °F 67.1 °F 29.80 in SW 4.1 mph 5.8 mph 67 % 0.00 in
01:41 78.9 °F 67.0 °F 29.80 in SW 2.1 mph 3.5 mph 67 % 0.00 in
01:46 78.8 °F 66.9 °F 29.80 in SSW 2.7 mph 3.5 mph 67 % 0.00 in
01:51 78.8 °F 66.9 °F 29.80 in WSW 1.0 mph 3.5 mph 67 % 0.00 in
01:56 78.6 °F 67.2 °F 29.80 in SW 2.4 mph 3.5 mph 68 % 0.00 in
02:01 78.5 °F 67.1 °F 29.80 in SW 5.2 mph 8.0 mph 68 % 0.00 in
02:06 78.5 °F 67.1 °F 29.80 in West 3.6 mph 8.1 mph 68 % 0.00 in
02:11 78.4 °F 67.0 °F 29.80 in WSW 5.0 mph 7.0 mph 68 % 0.00 in
02:16 78.4 °F 67.0 °F 29.80 in WSW 3.9 mph 10.4 mph 68 % 0.00 in
02:21 78.3 °F 67.3 °F 29.80 in West 3.7 mph 8.1 mph 69 % 0.00 in
02:26 78.2 °F 67.2 °F 29.79 in SW 1.6 mph 3.5 mph 69 % 0.00 in
02:31 78.2 °F 67.2 °F 29.80 in South 2.1 mph 6.0 mph 69 % 0.00 in
02:36 78.1 °F 67.1 °F 29.79 in South 2.8 mph 3.5 mph 69 % 0.00 in
02:41 78.0 °F 67.0 °F 29.79 in SW 3.7 mph 8.1 mph 69 % 0.00 in
02:46 77.9 °F 67.3 °F 29.79 in SSW 4.9 mph 8.0 mph 70 % 0.00 in
02:51 77.8 °F 67.2 °F 29.80 in WSW 3.4 mph 6.9 mph 70 % 0.00 in
02:56 77.8 °F 67.2 °F 29.80 in SW 2.9 mph 5.0 mph 70 % 0.00 in
03:01 77.7 °F 67.1 °F 29.80 in WSW 2.0 mph 3.5 mph 70 % 0.00 in
03:11 77.6 °F 67.4 °F 29.80 in SSW 2.0 mph 3.5 mph 71 % 0.00 in
03:16 77.5 °F 67.4 °F 29.80 in SW 3.9 mph 5.0 mph 71 % 0.00 in
03:17 77.4 °F 67.3 °F 29.80 in SSW 3.9 mph 4.6 mph 71 % 0.00 in
03:22 77.3 °F 67.2 °F 29.80 in SSW 3.1 mph 4.6 mph 71 % 0.00 in
03:27 77.1 °F 67.4 °F 29.80 in SSW 4.1 mph 5.8 mph 72 % 0.00 in
03:32 77.0 °F 67.3 °F 29.81 in SSW 3.1 mph 5.8 mph 72 % 0.00 in
03:37 76.9 °F 67.2 °F 29.81 in WSW 1.5 mph 6.9 mph 72 % 0.00 in
03:39 76.9 °F 67.2 °F 29.81 in SW 3.7 mph 6.9 mph 72 % 0.00 in
03:44 76.8 °F 67.5 °F 29.81 in SSW 2.2 mph 6.9 mph 73 % 0.00 in
03:49 76.7 °F 67.4 °F 29.81 in SW 3.9 mph 7.0 mph 73 % 0.00 in
03:54 76.7 °F 67.4 °F 29.81 in SW 4.3 mph 6.9 mph 73 % 0.00 in
03:59 76.6 °F 67.7 °F 29.80 in WSW 2.8 mph 3.5 mph 74 % 0.00 in
04:04 76.5 °F 67.6 °F 29.80 in SSW 6.2 mph 6.9 mph 74 % 0.00 in
04:09 76.4 °F 67.9 °F 29.80 in SW 4.3 mph 8.1 mph 75 % 0.00 in
04:14 76.3 °F 67.8 °F 29.80 in SW 2.6 mph 9.2 mph 75 % 0.00 in
04:19 76.2 °F 67.7 °F 29.80 in SW 3.4 mph 9.2 mph 75 % 0.00 in
04:24 76.1 °F 67.6 °F 29.80 in SSW 2.3 mph 4.6 mph 75 % 0.00 in
04:29 76.1 °F 67.6 °F 29.80 in WSW 2.0 mph 3.5 mph 75 % 0.00 in
04:34 76.0 °F 67.5 °F 29.80 in WSW 1.5 mph 6.0 mph 75 % 0.00 in
04:39 76.0 °F 67.5 °F 29.80 in West 1.7 mph 5.0 mph 75 % 0.00 in
04:44 75.9 °F 67.8 °F 29.81 in SW 3.1 mph 5.8 mph 76 % 0.00 in
04:49 75.7 °F 68.0 °F 29.81 in West 5.5 mph 11.5 mph 77 % 0.00 in
04:54 75.6 °F 67.9 °F 29.81 in SW 3.1 mph 6.0 mph 77 % 0.00 in
04:59 75.5 °F 67.8 °F 29.81 in SW 3.4 mph 4.6 mph 77 % 0.00 in
05:04 75.3 °F 67.6 °F 29.81 in WSW 3.1 mph 5.8 mph 77 % 0.00 in
05:09 75.2 °F 67.5 °F 29.81 in WSW 2.0 mph 3.5 mph 77 % 0.00 in
05:14 75.1 °F 67.8 °F 29.80 in SSW 3.9 mph 5.8 mph 78 % 0.00 in
05:19 75.0 °F 67.7 °F 29.81 in WSW 3.4 mph 5.0 mph 78 % 0.00 in
05:21 74.9 °F 67.6 °F 29.81 in SW 3.3 mph 5.8 mph 78 % 0.00 in
05:26 74.7 °F 67.4 °F 29.81 in SW 1.6 mph 3.5 mph 78 % 0.00 in
05:32 74.6 °F 67.7 °F 29.81 in SSW 4.1 mph 6.0 mph 79 % 0.00 in
05:37 74.4 °F 67.5 °F 29.81 in SSW 3.3 mph 3.5 mph 79 % 0.00 in
05:42 74.3 °F 67.7 °F 29.81 in SW 0.8 mph 6.9 mph 80 % 0.00 in
05:47 74.2 °F 67.6 °F 29.81 in SSW 2.9 mph 5.8 mph 80 % 0.00 in
05:52 74.0 °F 67.4 °F 29.82 in SSW 5.2 mph 8.1 mph 80 % 0.00 in
05:57 74.0 °F 67.8 °F 29.81 in WSW 1.7 mph 8.0 mph 81 % 0.00 in
06:02 73.9 °F 67.7 °F 29.82 in SW 3.9 mph 8.1 mph 81 % 0.00 in
06:07 73.9 °F 67.7 °F 29.82 in SW 2.9 mph 4.6 mph 81 % 0.00 in
06:12 73.9 °F 67.7 °F 29.82 in WSW 4.0 mph 4.6 mph 81 % 0.00 in
06:14 73.9 °F 67.7 °F 29.82 in WSW 4.2 mph 6.9 mph 81 % 0.00 in
06:19 74.0 °F 67.8 °F 29.82 in WSW 4.3 mph 6.0 mph 81 % 0.00 in
06:24 74.0 °F 67.8 °F 29.83 in WSW 1.4 mph 5.8 mph 81 % 0.00 in
06:29 74.2 °F 68.0 °F 29.83 in WSW 2.8 mph 4.0 mph 81 % 0.00 in
06:34 74.3 °F 67.7 °F 29.83 in WSW 3.6 mph 4.6 mph 80 % 0.00 in
06:39 74.5 °F 67.9 °F 29.83 in SW 2.5 mph 8.1 mph 80 % 0.00 in
06:44 74.8 °F 68.2 °F 29.83 in SW 2.6 mph 4.6 mph 80 % 0.00 in
06:49 75.1 °F 68.1 °F 29.83 in SW 5.5 mph 8.0 mph 79 % 0.00 in
06:54 75.4 °F 68.1 °F 29.83 in SSW 4.4 mph 9.2 mph 78 % 0.00 in
06:59 75.8 °F 68.1 °F 29.83 in WSW 4.6 mph 9.2 mph 77 % 0.00 in
07:04 76.2 °F 68.8 °F 29.83 in WSW 3.9 mph 5.0 mph 78 % 0.00 in
07:09 76.6 °F 68.5 °F 29.83 in SSW 4.9 mph 8.1 mph 76 % 0.00 in
07:14 77.1 °F 68.9 °F 29.83 in WSW 3.7 mph 6.0 mph 76 % 0.00 in
07:19 77.4 °F 68.9 °F 29.83 in West 5.0 mph 5.8 mph 75 % 0.00 in
07:25 77.8 °F 68.4 °F 29.83 in SW 4.2 mph 9.2 mph 73 % 0.00 in
07:29 78.2 °F 68.4 °F 29.83 in West 4.6 mph 8.1 mph 72 % 0.00 in
07:30 78.3 °F 68.5 °F 29.83 in WSW 4.1 mph 8.1 mph 72 % 0.00 in
07:35 78.6 °F 68.4 °F 29.83 in West 3.6 mph 8.1 mph 71 % 0.00 in
07:40 78.8 °F 68.6 °F 29.83 in WSW 4.3 mph 8.1 mph 71 % 0.00 in
07:45 79.0 °F 68.4 °F 29.83 in SW 5.0 mph 11.5 mph 70 % 0.00 in
07:50 79.2 °F 68.6 °F 29.83 in SW 4.1 mph 11.5 mph 70 % 0.00 in
07:55 79.3 °F 68.7 °F 29.83 in WSW 3.7 mph 11.5 mph 70 % 0.00 in
08:01 79.4 °F 68.8 °F 29.84 in WSW 4.0 mph 8.1 mph 70 % 0.00 in
08:06 79.6 °F 68.9 °F 29.83 in WSW 7.0 mph 13.0 mph 70 % 0.00 in
08:11 79.7 °F 69.0 °F 29.84 in WSW 5.0 mph 9.0 mph 70 % 0.00 in
08:16 79.8 °F 69.1 °F 29.84 in WSW 5.0 mph 12.0 mph 70 % 0.00 in
08:21 80.0 °F 69.3 °F 29.84 in WSW 2.0 mph 9.0 mph 70 % 0.00 in
08:26 80.2 °F 69.1 °F 29.84 in West 3.0 mph 8.0 mph 69 % 0.00 in
08:31 80.3 °F 69.2 °F 29.85 in West 3.0 mph 12.0 mph 69 % 0.00 in
08:36 80.5 °F 69.4 °F 29.85 in West 3.0 mph 9.0 mph 69 % 0.00 in
08:41 80.6 °F 69.1 °F 29.85 in WSW 6.0 mph 12.0 mph 68 % 0.00 in
08:46 80.8 °F 69.2 °F 29.85 in WSW 5.0 mph 9.0 mph 68 % 0.00 in
08:51 81.0 °F 69.0 °F 29.85 in WSW 5.0 mph 9.0 mph 67 % 0.00 in
08:56 81.2 °F 69.2 °F 29.85 in WSW 5.0 mph 9.0 mph 67 % 0.00 in
09:01 81.4 °F 68.9 °F 29.85 in SSW 3.9 mph 8.1 mph 66 % 0.00 in
09:06 81.6 °F 69.1 °F 29.85 in WSW 5.0 mph 13.0 mph 66 % 0.00 in
09:11 81.8 °F 69.3 °F 29.85 in WSW 5.0 mph 12.0 mph 66 % 0.00 in
09:16 82.0 °F 69.1 °F 29.84 in WSW 3.0 mph 9.0 mph 65 % 0.00 in
09:21 82.1 °F 68.7 °F 29.84 in WSW 6.0 mph 12.0 mph 64 % 0.00 in
09:26 82.4 °F 69.0 °F 29.84 in WSW 4.3 mph 9.2 mph 64 % 0.00 in
09:31 82.7 °F 69.3 °F 29.84 in WSW 5.0 mph 8.0 mph 64 % 0.00 in
09:36 83.1 °F 69.6 °F 29.84 in WSW 2.0 mph 8.0 mph 64 % 0.00 in
09:41 83.5 °F 69.1 °F 29.84 in WSW 2.0 mph 9.0 mph 62 % 0.00 in
09:46 84.0 °F 69.1 °F 29.83 in WSW 5.0 mph 12.0 mph 61 % 0.00 in
09:51 84.5 °F 69.1 °F 29.83 in WSW 6.0 mph 9.0 mph 60 % 0.00 in
09:56 85.1 °F 70.1 °F 29.83 in WSW 3.0 mph 9.0 mph 61 % 0.00 in
10:01 85.6 °F 69.1 °F 29.83 in WNW 3.0 mph 10.4 mph 58 % 0.00 in
10:06 86.1 °F 70.1 °F 29.83 in WSW 1.1 mph 2.3 mph 59 % 0.00 in
10:11 86.8 °F 71.2 °F 29.83 in SW 4.3 mph 5.8 mph 60 % 0.00 in
10:16 87.3 °F 69.2 °F 29.83 in WSW 3.3 mph 5.8 mph 55 % 0.00 in
10:21 87.8 °F 70.7 °F 29.82 in WSW 2.2 mph 5.8 mph 57 % 0.00 in
10:26 88.3 °F 70.6 °F 29.83 in NW 2.6 mph 4.6 mph 56 % 0.00 in
10:31 88.7 °F 69.9 °F 29.83 in WNW 5.7 mph 10.4 mph 54 % 0.00 in
10:36 89.1 °F 70.3 °F 29.83 in West 5.6 mph 8.1 mph 54 % 0.00 in
10:41 89.4 °F 69.5 °F 29.83 in West 2.7 mph 5.8 mph 52 % 0.00 in
10:46 89.6 °F 69.6 °F 29.83 in SW 3.7 mph 5.8 mph 52 % 0.00 in
10:51 89.9 °F 69.9 °F 29.83 in West 8.4 mph 11.5 mph 52 % 0.00 in
10:56 90.0 °F 68.9 °F 29.83 in SW 4.2 mph 11.5 mph 50 % 0.00 in
11:01 90.1 °F 69.5 °F 29.83 in SW 2.4 mph 6.0 mph 51 % 0.00 in
11:06 90.3 °F 70.3 °F 29.83 in WSW 4.9 mph 6.9 mph 52 % 0.00 in
11:11 90.7 °F 69.5 °F 29.83 in WSW 3.5 mph 8.0 mph 50 % 0.00 in
11:14 90.8 °F 69.6 °F 29.83 in WNW 2.8 mph 7.0 mph 50 % 0.00 in
11:19 91.0 °F 69.8 °F 29.83 in West 3.3 mph 8.1 mph 50 % 0.00 in
11:24 91.2 °F 69.4 °F 29.83 in West 2.0 mph 5.8 mph 49 % 0.00 in
11:29 91.4 °F 69.0 °F 29.83 in SW 3.4 mph 9.2 mph 48 % 0.00 in
11:34 91.5 °F 69.6 °F 29.83 in WSW 2.3 mph 10.4 mph 49 % 0.00 in
11:39 91.7 °F 69.2 °F 29.83 in SW 3.5 mph 11.5 mph 48 % 0.00 in
11:44 91.8 °F 69.3 °F 29.83 in WNW 4.0 mph 5.8 mph 48 % 0.00 in
11:49 92.0 °F 70.1 °F 29.83 in West 2.8 mph 5.8 mph 49 % 0.00 in
11:54 92.0 °F 69.5 °F 29.83 in WSW 3.7 mph 8.1 mph 48 % 0.00 in
11:59 92.2 °F 69.7 °F 29.83 in SW 3.9 mph 6.9 mph 48 % 0.00 in
12:04 92.4 °F 69.9 °F 29.82 in SW 5.3 mph 9.2 mph 48 % 0.00 in
12:09 92.6 °F 70.0 °F 29.82 in WSW 4.7 mph 8.1 mph 48 % 0.00 in
12:19 92.8 °F 71.4 °F 29.82 in SSW 2.7 mph 5.0 mph 50 % 0.00 in
12:24 92.8 °F 69.0 °F 29.82 in WSW 7.0 mph 11.5 mph 46 % 0.00 in
12:29 92.8 °F 69.6 °F 29.82 in West 5.8 mph 7.0 mph 47 % 0.00 in
12:34 93.0 °F 70.4 °F 29.81 in West 3.8 mph 7.0 mph 48 % 0.00 in
12:40 93.1 °F 68.0 °F 29.81 in West 4.0 mph 8.1 mph 44 % 0.00 in
12:45 93.2 °F 70.0 °F 29.81 in SSW 3.1 mph 8.1 mph 47 % 0.00 in
12:50 93.3 °F 70.1 °F 29.81 in West 3.4 mph 5.8 mph 47 % 0.00 in
12:55 93.5 °F 69.0 °F 29.81 in WNW 2.6 mph 5.0 mph 45 % 0.00 in
13:00 93.7 °F 69.2 °F 29.81 in SW 2.4 mph 6.9 mph 45 % 0.00 in
13:05 93.9 °F 68.0 °F 29.81 in SW 8.4 mph 12.7 mph 43 % 0.00 in
13:10 93.9 °F 69.3 °F 29.81 in SW 3.6 mph 7.0 mph 45 % 0.00 in
13:15 94.0 °F 68.1 °F 29.81 in WSW 4.3 mph 8.1 mph 43 % 0.00 in
13:20 94.0 °F 68.1 °F 29.80 in West 2.9 mph 6.9 mph 43 % 0.00 in
13:25 94.0 °F 67.4 °F 29.80 in SSW 3.5 mph 9.2 mph 42 % 0.00 in
13:30 94.1 °F 69.5 °F 29.80 in SW 4.4 mph 9.0 mph 45 % 0.00 in
13:35 94.2 °F 68.9 °F 29.80 in WSW 2.6 mph 5.8 mph 44 % 0.00 in
13:40 94.4 °F 68.5 °F 29.80 in West 2.4 mph 3.5 mph 43 % 0.00 in
13:45 94.5 °F 67.2 °F 29.79 in SSW 1.5 mph 4.6 mph 41 % 0.00 in
13:50 94.7 °F 68.0 °F 29.79 in SSW 6.2 mph 11.5 mph 42 % 0.00 in
13:55 94.8 °F 71.4 °F 29.79 in WNW 2.0 mph 3.5 mph 47 % 0.00 in
14:00 94.9 °F 68.9 °F 29.79 in SW 5.4 mph 10.4 mph 43 % 0.00 in
14:05 95.0 °F 68.3 °F 29.79 in WSW 5.7 mph 12.7 mph 42 % 0.00 in
14:10 94.9 °F 68.2 °F 29.79 in SW 4.8 mph 8.1 mph 42 % 0.00 in
14:15 95.0 °F 67.6 °F 29.79 in WNW 5.9 mph 9.2 mph 41 % 0.00 in
14:21 95.0 °F 66.9 °F 29.79 in WSW 6.0 mph 12.0 mph 40 % 0.00 in
14:26 95.1 °F 67.0 °F 29.79 in SW 6.0 mph 9.0 mph 40 % 0.00 in
14:31 95.0 °F 66.9 °F 29.79 in WSW 6.0 mph 9.0 mph 40 % 0.00 in
14:36 94.7 °F 68.0 °F 29.79 in West 2.0 mph 6.0 mph 42 % 0.00 in
14:41 93.8 °F 68.6 °F 29.79 in WSW 3.6 mph 8.1 mph 44 % 0.00 in
14:46 92.8 °F 69.0 °F 29.79 in NNW 3.0 mph 9.0 mph 46 % 0.00 in
14:51 91.5 °F 67.8 °F 29.79 in NW 1.2 mph 3.5 mph 46 % 0.00 in
14:56 90.5 °F 67.5 °F 29.79 in NNW 1.0 mph 8.0 mph 47 % 0.00 in
15:01 90.0 °F 67.7 °F 29.79 in WNW 2.8 mph 4.6 mph 48 % 0.00 in
15:06 89.4 °F 67.1 °F 29.79 in WNW 2.0 mph 3.5 mph 48 % 0.00 in
15:11 88.9 °F 68.4 °F 29.79 in Calm   3.0 mph 51 % 0.00 in
15:16 88.4 °F 67.9 °F 29.79 in NW 1.0 mph 4.0 mph 51 % 0.00 in
15:19 88.1 °F 68.3 °F 29.78 in WNW 0.4 mph 2.3 mph 52 % 0.00 in
15:24 88.0 °F 67.6 °F 29.78 in WNW 1.3 mph 3.5 mph 51 % 0.00 in
15:29 88.1 °F 69.9 °F 29.78 in WNW 0.9 mph 3.5 mph 55 % 0.00 in
15:34 88.5 °F 69.2 °F 29.78 in NW 1.9 mph 4.0 mph 53 % 0.00 in
15:39 88.9 °F 70.1 °F 29.78 in WNW 0.5 mph 2.3 mph 54 % 0.00 in
15:44 89.5 °F 70.7 °F 29.78 in North 1.8 mph 3.5 mph 54 % 0.00 in
15:49 90.2 °F 67.9 °F 29.78 in WNW 3.7 mph 4.0 mph 48 % 0.00 in
15:54 90.8 °F 69.6 °F 29.78 in NW 0.3 mph 3.5 mph 50 % 0.00 in
15:59 91.4 °F 69.0 °F 29.78 in NW 3.3 mph 4.6 mph 48 % 0.00 in
16:04 91.7 °F 69.2 °F 29.78 in NW 1.3 mph 5.0 mph 48 % 0.00 in
16:09 91.9 °F 68.8 °F 29.78 in North 3.4 mph 6.9 mph 47 % 0.00 in
16:14 91.4 °F 68.3 °F 29.79 in NNW 2.3 mph 8.1 mph 47 % 0.00 in
16:19 90.6 °F 67.0 °F 29.79 in NNW 3.8 mph 9.0 mph 46 % 0.00 in
16:24 89.3 °F 68.2 °F 29.80 in NW 2.1 mph 4.6 mph 50 % 0.00 in
16:29 88.4 °F 68.0 °F 29.82 in NW 4.5 mph 6.9 mph 51 % 0.00 in
16:34 86.6 °F 71.5 °F 29.81 in WNW 4.8 mph 6.9 mph 61 % 0.12 in
16:39 85.0 °F 72.4 °F 29.81 in WNW 1.2 mph 6.9 mph 66 % 0.12 in
16:45 83.7 °F 72.4 °F 29.80 in WNW 0.1 mph 2.3 mph 69 % 0.12 in
16:50 82.9 °F 73.4 °F 29.80 in WNW 0.4 mph 1.2 mph 73 % 0.12 in
16:55 82.4 °F 74.1 °F 29.80 in WNW 0.7 mph 2.3 mph 76 % 0.12 in
17:00 82.0 °F 74.5 °F 29.79 in WNW 1.4 mph 3.5 mph 78 % 0.12 in
17:05 81.6 °F 74.5 °F 29.79 in WSW 1.3 mph 3.5 mph 79 % 0.12 in
17:10 81.3 °F 73.8 °F 29.79 in Calm   1.2 mph 78 % 0.12 in
17:15 81.1 °F 74.3 °F 29.79 in Calm   1.2 mph 80 % 0.12 in
17:20 81.1 °F 74.7 °F 29.79 in Calm   1.2 mph 81 % 0.12 in
17:25 80.9 °F 74.5 °F 29.79 in Calm   2.3 mph 81 % 0.12 in
17:35 80.7 °F 74.0 °F 29.79 in Calm   1.2 mph 80 % 0.00 in
17:40 80.7 °F 74.0 °F 29.79 in WSW 0.2 mph 1.0 mph 80 % 0.00 in
17:44 80.7 °F 74.0 °F 29.79 in WSW 0.2 mph 1.2 mph 80 % 0.00 in
17:49 80.6 °F 73.5 °F 29.80 in Calm   1.2 mph 79 % 0.00 in
17:54 80.6 °F 73.5 °F 29.79 in Calm     79 % 0.00 in
17:59 80.7 °F 74.0 °F 29.79 in Calm     80 % 0.00 in
18:04 80.7 °F 73.6 °F 29.80 in Calm     79 % 0.00 in
18:09 80.8 °F 74.0 °F 29.79 in Calm     80 % 0.00 in
18:14 80.8 °F 74.0 °F 29.79 in Calm     80 % 0.00 in
18:19 80.9 °F 73.8 °F 29.80 in Calm     79 % 0.00 in
18:24 80.9 °F 73.4 °F 29.80 in Calm     78 % 0.00 in
18:29 80.9 °F 73.4 °F 29.80 in WSW 0.5 mph 1.2 mph 78 % 0.00 in
18:34 81.0 °F 72.7 °F 29.80 in Calm     76 % 0.00 in
18:39 81.0 °F 72.7 °F 29.80 in Calm     76 % 0.00 in
18:44 81.1 °F 72.4 °F 29.80 in Calm     75 % 0.00 in
18:50 81.1 °F 72.0 °F 29.80 in Calm     74 % 0.00 in
18:55 81.1 °F 72.0 °F 29.80 in Calm     74 % 0.00 in
19:00 81.1 °F 71.6 °F 29.80 in Calm     73 % 0.00 in
19:05 81.0 °F 71.9 °F 29.80 in Calm     74 % 0.00 in
19:10 80.9 °F 72.2 °F 29.81 in Calm     75 % 0.00 in
19:15 80.8 °F 72.1 °F 29.81 in Calm     75 % 0.00 in
19:20 80.6 °F 71.9 °F 29.81 in Calm     75 % 0.00 in
19:25 80.4 °F 72.1 °F 29.81 in Calm     76 % 0.00 in
19:30 80.3 °F 72.4 °F 29.81 in Calm     77 % 0.00 in
19:35 80.0 °F 72.1 °F 29.82 in WSW 0.6 mph 2.3 mph 77 % 0.00 in
19:40 79.8 °F 71.9 °F 29.82 in Calm     77 % 0.00 in
19:45 79.4 °F 69.2 °F 29.83 in West 6.2 mph 15.0 mph 71 % 0.00 in
19:46 79.3 °F 69.1 °F 29.83 in NW 4.5 mph 6.9 mph 71 % 0.00 in
19:51 78.8 °F 67.3 °F 29.85 in North 3.0 mph 6.9 mph 68 % 0.00 in
19:56 78.5 °F 67.1 °F 29.85 in NNE 5.6 mph 11.0 mph 68 % 0.00 in
20:01 77.4 °F 64.3 °F 29.84 in NNE 7.1 mph 11.5 mph 64 % 0.00 in
20:06 76.5 °F 64.7 °F 29.85 in NNE 4.7 mph 9.2 mph 67 % 0.00 in
20:11 75.6 °F 63.4 °F 29.85 in North 5.4 mph 8.1 mph 66 % 0.00 in
20:16 74.8 °F 63.1 °F 29.86 in ENE 1.5 mph 3.5 mph 67 % 0.00 in
20:21 74.4 °F 63.1 °F 29.88 in Calm   1.2 mph 68 % 0.00 in
20:26 74.1 °F 62.9 °F 29.89 in NE 0.2 mph   68 % 0.00 in
20:31 73.7 °F 62.1 °F 29.89 in ENE 2.2 mph 5.8 mph 67 % 0.00 in
20:36 73.3 °F 61.7 °F 29.89 in North 1.0 mph 8.1 mph 67 % 0.00 in
20:42 72.8 °F 61.2 °F 29.89 in North 0.7 mph 4.6 mph 67 % 0.00 in
20:47 72.4 °F 60.8 °F 29.90 in ENE 0.4 mph 4.6 mph 67 % 0.00 in
20:52 72.1 °F 61.0 °F 29.90 in NNE 1.6 mph 4.0 mph 68 % 0.00 in
20:57 71.9 °F 60.3 °F 29.91 in North 0.3 mph 1.2 mph 67 % 0.00 in
21:02 71.6 °F 60.5 °F 29.92 in North 2.1 mph 4.0 mph 68 % 0.00 in
21:07 71.4 °F 59.9 °F 29.92 in North 0.8 mph 2.3 mph 67 % 0.00 in
21:12 71.0 °F 59.9 °F 29.92 in NE 1.2 mph 3.5 mph 68 % 0.00 in
21:17 70.7 °F 59.2 °F 29.93 in NNE 5.3 mph 10.4 mph 67 % 0.00 in
21:20 70.5 °F 59.4 °F 29.93 in North 4.0 mph 6.0 mph 68 % 0.00 in
21:25 70.2 °F 59.1 °F 29.94 in NNE 3.5 mph 5.0 mph 68 % 0.00 in
21:30 69.9 °F 58.9 °F 29.94 in North 3.5 mph 5.0 mph 68 % 0.00 in
21:35 69.7 °F 58.3 °F 29.94 in North 3.9 mph 6.9 mph 67 % 0.00 in
21:40 69.6 °F 58.6 °F 29.94 in NNE 3.5 mph 4.6 mph 68 % 0.00 in
21:45 69.4 °F 58.8 °F 29.94 in NNW 1.8 mph 3.5 mph 69 % 0.00 in
21:50 69.2 °F 59.0 °F 29.94 in North 3.3 mph 4.6 mph 70 % 0.00 in
21:55 69.0 °F 59.2 °F 29.95 in North 3.7 mph 4.6 mph 71 % 0.00 in
22:00 68.8 °F 59.0 °F 29.95 in North 3.4 mph 6.0 mph 71 % 0.00 in
22:05 68.5 °F 59.1 °F 29.95 in NNW 5.2 mph 8.1 mph 72 % 0.00 in
22:10 68.3 °F 58.5 °F 29.96 in North 5.1 mph 10.4 mph 71 % 0.00 in
22:15 68.0 °F 57.4 °F 29.96 in NNE 4.3 mph 5.8 mph 69 % 0.00 in
22:20 67.7 °F 56.8 °F 29.96 in NNE 4.4 mph 8.1 mph 68 % 0.00 in
22:25 67.6 °F 57.1 °F 29.97 in North 5.1 mph 8.0 mph 69 % 0.00 in
22:30 67.5 °F 56.6 °F 29.96 in North 6.0 mph 9.2 mph 68 % 0.00 in
22:36 67.4 °F 56.5 °F 29.97 in North 2.8 mph 5.8 mph 68 % 0.00 in
22:41 67.3 °F 56.4 °F 29.97 in North 3.0 mph 8.0 mph 68 % 0.00 in
22:46 67.2 °F 56.2 °F 29.97 in NNE 3.0 mph 10.0 mph 68 % 0.00 in
22:51 67.0 °F 56.5 °F 29.97 in NNE 5.0 mph 8.0 mph 69 % 0.00 in
22:56 67.0 °F 56.4 °F 29.98 in NNE 5.0 mph 9.0 mph 69 % 0.00 in
23:01 66.8 °F 56.3 °F 29.98 in NNE 5.3 mph 7.0 mph 69 % 0.00 in
23:06 66.6 °F 55.7 °F 29.98 in NE 4.8 mph 8.1 mph 68 % 0.00 in
23:11 66.5 °F 55.2 °F 29.98 in NE 5.4 mph 9.2 mph 67 % 0.00 in
23:16 66.4 °F 55.5 °F 29.99 in North 3.9 mph 9.2 mph 68 % 0.00 in
23:21 66.3 °F 55.4 °F 29.99 in NNE 5.7 mph 8.1 mph 68 % 0.00 in
23:26 66.1 °F 55.6 °F 29.99 in NNW 4.3 mph 8.1 mph 69 % 0.00 in
23:31 65.9 °F 55.8 °F 29.99 in North 6.7 mph 10.4 mph 70 % 0.00 in
23:36 65.7 °F 56.0 °F 29.99 in NNE 6.6 mph 10.4 mph 71 % 0.00 in
23:41 65.3 °F 55.7 °F 30.00 in NNW 4.3 mph 10.4 mph 71 % 0.00 in
23:46 65.2 °F 55.9 °F 30.01 in NNE 5.1 mph 8.1 mph 72 % 0.00 in
23:51 65.0 °F 56.1 °F 30.01 in NE 5.7 mph 9.0 mph 73 % 0.00 in
23:56 64.7 °F 55.8 °F 30.01 in North 5.2 mph 8.0 mph 73 % 0.00 in
Crab Meadow Weather
Compliments of Weather Underground - 3 mb

Script developed by  Jim McMurry - jmcmurry@mwt.net Adapted for the template by  Wim van der Kuil - Leuven-Template.eu

Weather Terms: Wind Chill - An apparent temperature that describes the combined effect of wind and low temperature on exposed skin.